Theta_e
347 346 347 348 349 352 353 353 356 355 354 354 357 363 359 356 357 354 355 355 355 354 353 354 351 349 353 352 350 351 350 350 350 349 350 347 345 345 343 344 345 345 345 344 343 343 342 344 343 342 340 340 339 336 335 336 336 335 331 328 328 328 328 327 326 327 328 329 329 328 328 328 330 334 337 339 340 341 342 342 341 341 341 341 341 341 341 341 341 341 340 340 341 341 341 340 340
347 347 347 348 351 353 354 355 357 356 355 356 356 362 358 355 356 355 356 355 355 352 352 353 352 352 352 350 349 351 351 351 350 348 347 346 346 345 343 344 343 344 343 342 344 343 342 342 343 341 340 341 337 332 333 333 333 332 329 328 328 328 327 327 327 328 330 329 328 328 329 330 333 337 339 340 341 341 341 341 340 340 340 340 340 340 340 341 342 342 340 340 340 341 341 341 340
348 348 347 351 353 354 355 353 356 357 356 354 356 362 357 357 359 354 354 353 353 351 353 353 352 352 350 352 352 352 351 349 348 346 346 346 345 345 343 342 342 343 341 341 343 343 342 342 342 341 341 341 337 331 330 329 329 329 328 328 327 326 326 327 329 331 331 330 328 329 331 333 336 339 340 340 340 341 341 341 340 339 339 339 339 340 341 342 342 342 341 340 340 340 341 341 341
349 349 349 353 354 354 355 353 357 358 354 351 354 361 357 357 357 352 353 352 352 352 353 352 352 351 351 355 352 350 351 348 346 346 347 346 345 344 343 342 342 343 342 342 343 343 342 342 342 341 341 342 340 336 333 330 329 328 328 327 326 326 329 330 331 332 331 330 330 332 334 336 338 340 340 340 340 341 341 340 339 339 338 338 339 340 341 341 341 341 341 341 340 339 340 341 341
350 351 351 354 354 354 355 354 357 356 354 356 356 359 356 352 353 352 352 352 353 353 351 351 352 351 351 352 350 350 350 347 346 346 346 345 344 344 344 342 341 341 341 342 343 343 343 342 341 341 341 342 342 341 339 336 334 333 332 330 329 329 332 332 332 333 332 332 332 335 336 337 339 339 339 339 340 340 340 339 339 338 338 338 339 340 341 341 341 341 341 341 341 340 339 340 341
351 352 353 355 354 353 354 353 355 359 359 360 359 358 354 350 353 352 351 352 352 352 351 351 351 351 350 350 350 350 350 347 346 346 345 344 343 343 343 342 340 341 341 342 344 343 343 342 342 341 340 343 343 343 341 338 337 337 334 333 333 334 335 334 334 334 333 334 335 337 338 338 339 339 339 339 339 339 338 338 338 338 339 339 339 340 340 342 342 342 342 341 341 340 339 339 341
351 353 354 355 355 353 358 356 358 366 360 356 359 357 352 351 352 351 352 352 352 351 351 351 350 352 352 351 350 349 350 348 345 345 345 344 343 342 343 342 341 342 342 343 344 343 343 343 342 341 340 342 344 343 341 338 338 337 336 336 337 338 337 336 336 335 334 335 336 338 339 339 339 339 338 338 337 337 336 336 338 339 340 340 340 340 340 341 342 342 342 341 341 341 341 340 341
352 354 353 356 357 353 358 361 361 365 357 350 353 353 350 352 352 352 352 351 352 351 350 351 349 353 353 351 351 351 350 347 343 344 345 345 343 342 343 343 343 342 343 344 344 344 343 344 343 341 340 342 343 343 341 339 339 338 339 339 340 339 337 337 337 336 336 336 338 339 339 338 339 338 338 337 336 336 336 336 339 340 340 340 340 340 340 340 341 342 341 341 341 341 341 340 340
352 355 354 357 357 354 358 361 359 357 358 352 348 352 352 352 352 352 352 351 351 350 350 350 349 354 353 351 352 351 349 346 343 345 344 344 343 342 343 343 343 343 343 344 344 344 344 344 343 342 341 342 343 343 341 340 340 339 340 340 340 340 338 338 338 337 337 338 339 340 340 338 338 338 337 336 335 335 336 337 338 339 340 340 340 340 340 340 341 342 342 341 341 340 340 340 339
351 355 355 355 353 353 354 353 354 352 355 352 348 353 352 352 352 351 350 350 351 351 351 350 350 353 352 352 352 350 348 346 344 345 345 344 342 342 343 343 343 342 343 343 342 343 344 344 343 343 342 342 343 343 341 341 341 340 340 340 340 339 339 339 339 338 338 338 339 340 340 338 337 337 337 336 336 335 335 336 337 338 339 339 339 340 340 340 341 341 341 342 342 341 340 340 340
352 354 355 356 354 352 352 349 352 352 351 349 349 352 351 352 352 350 350 351 351 352 352 351 351 352 352 352 352 350 347 345 344 345 345 344 342 342 342 342 342 342 342 341 341 343 343 343 343 344 343 342 343 342 342 341 341 341 341 341 340 340 340 340 339 339 339 339 339 340 340 338 337 337 337 336 336 335 335 336 337 339 339 338 338 338 339 340 341 341 340 341 341 341 341 341 341
355 356 354 359 357 353 353 350 351 353 352 350 350 351 352 352 351 351 351 351 352 352 352 351 351 351 352 352 352 351 348 345 344 344 344 343 342 342 342 341 341 342 342 341 342 343 343 343 343 343 343 343 342 343 342 341 341 341 341 340 340 340 340 340 339 340 340 340 340 340 340 338 336 337 337 337 337 336 335 336 337 339 338 338 338 339 340 341 341 342 340 340 340 340 341 342 342
356 356 352 357 360 355 352 348 352 354 350 350 350 351 352 351 351 351 351 352 352 352 352 350 349 350 352 352 352 351 348 345 345 344 344 342 342 342 342 342 342 342 342 342 343 344 344 344 344 343 343 343 342 343 342 341 341 341 341 340 340 340 341 340 340 341 340 341 341 340 340 338 336 338 338 337 337 335 335 336 338 339 339 339 340 340 341 340 341 341 340 339 338 338 339 340 341
355 355 351 356 357 353 347 345 353 352 349 349 347 351 352 351 351 351 352 353 352 352 352 350 348 350 353 352 352 351 347 345 345 344 344 342 342 342 343 344 344 344 344 343 344 345 345 345 345 344 343 343 342 342 343 342 340 341 342 341 340 340 341 342 341 341 341 341 341 340 341 339 337 338 338 338 338 336 336 336 339 340 340 340 341 340 340 341 341 341 341 340 337 336 337 338 339
355 355 348 351 353 347 346 347 350 350 351 349 346 351 351 350 351 351 352 353 352 351 351 350 348 352 354 352 352 350 347 345 344 344 344 342 341 342 342 343 343 344 344 344 345 345 345 345 345 345 344 343 342 342 342 342 341 341 341 341 340 340 341 343 342 341 342 342 342 341 342 340 338 339 340 340 339 338 337 337 339 340 340 340 340 340 341 341 341 341 342 342 340 339 339 338 339
353 357 349 348 351 346 347 349 346 350 351 347 348 351 351 351 351 351 351 351 352 351 351 350 348 350 351 351 351 348 346 345 344 345 344 343 342 342 342 342 343 343 344 344 345 346 345 346 346 345 345 344 343 342 341 341 340 340 341 342 341 340 342 343 342 342 343 342 342 342 342 340 338 340 341 341 340 340 339 338 339 340 340 340 340 341 342 342 342 342 342 344 343 342 342 341 340
354 359 357 353 352 349 350 347 345 351 349 347 350 350 352 353 351 352 351 351 352 351 350 349 349 351 349 350 350 346 346 345 345 345 345 345 345 344 344 343 343 343 344 344 345 346 346 347 346 346 345 344 343 342 342 339 338 339 342 344 342 342 344 343 342 342 343 343 342 342 341 338 337 340 340 340 341 340 340 339 340 340 341 341 342 342 343 343 343 342 341 343 344 343 343 342 342
356 357 359 357 357 354 351 344 344 346 346 349 350 349 352 352 351 351 351 351 351 351 351 350 351 352 350 350 349 346 346 346 346 346 346 346 346 346 346 345 344 344 344 344 345 346 347 347 347 347 345 345 342 342 342 338 338 339 342 345 344 344 345 343 342 343 343 342 342 342 339 335 336 340 340 339 340 341 340 341 341 341 342 342 343 343 343 344 344 343 342 343 344 344 344 343 343
356 354 355 358 358 354 345 340 341 339 343 349 349 350 351 351 351 351 352 352 351 353 353 351 352 352 350 351 349 347 346 345 346 347 347 347 347 347 347 347 345 345 345 345 345 345 347 347 347 347 346 345 342 342 341 340 339 340 342 344 345 345 344 343 342 342 342 342 342 340 336 335 337 340 340 340 340 340 341 342 343 343 343 343 343 343 344 345 344 344 343 343 343 344 345 344 345
357 355 357 356 353 349 343 340 341 339 342 347 348 350 350 350 351 351 351 350 351 354 353 352 353 352 352 351 349 348 346 345 345 346 347 348 348 347 347 347 346 345 345 344 344 345 347 347 347 346 345 344 344 343 342 341 340 341 343 345 345 345 344 343 342 341 341 341 341 338 335 336 338 340 341 341 340 341 342 343 345 344 343 343 343 343 344 345 344 344 344 344 344 345 346 345 345
357 358 360 354 347 348 346 344 343 341 342 344 348 350 349 350 351 350 350 352 353 352 351 350 351 352 352 351 349 348 347 346 346 347 348 349 349 348 347 347 346 345 345 344 344 345 346 347 347 345 344 344 344 343 341 340 341 343 345 345 345 344 343 342 341 339 340 340 339 336 335 337 340 340 341 341 340 341 343 344 344 344 344 345 344 344 345 345 345 346 345 345 345 346 347 346 346
352 356 357 352 348 347 347 343 342 340 339 343 348 349 350 350 350 349 350 354 354 350 349 347 347 350 350 351 349 349 349 348 349 350 350 350 350 349 348 347 346 345 345 345 344 344 345 346 346 344 344 344 343 343 342 341 342 345 345 344 345 342 340 340 339 339 339 338 337 336 337 339 340 340 341 342 341 342 343 344 344 344 345 346 345 345 345 345 346 346 346 346 346 345 347 347 347
349 350 349 349 349 347 347 344 341 339 339 344 348 349 350 350 349 349 349 350 349 345 346 347 347 347 347 350 350 349 351 351 351 351 351 351 351 350 349 348 347 345 345 345 344 344 343 344 344 343 344 345 343 342 342 342 343 345 345 343 342 340 338 338 338 338 337 336 336 336 338 340 341 340 341 343 342 343 344 345 344 344 345 345 346 345 345 345 346 346 346 346 346 346 346 346 347
347 347 344 345 345 343 344 344 341 339 340 344 347 348 349 350 350 349 348 347 346 346 348 348 349 348 348 350 350 350 351 352 352 351 351 351 351 350 350 349 347 346 345 345 345 344 343 343 343 343 343 344 343 342 342 342 343 345 344 341 339 338 338 338 338 338 336 336 336 337 338 340 340 339 340 342 343 344 345 346 345 345 345 345 346 346 346 345 345 345 345 345 345 346 346 345 346
344 345 344 343 343 342 343 342 340 338 338 341 346 349 349 350 349 349 349 347 347 348 350 350 350 349 350 350 350 351 351 352 352 351 351 351 351 350 350 349 348 346 344 344 344 343 343 342 342 342 341 341 341 341 342 342 341 343 342 339 338 337 338 338 338 337 336 336 337 337 338 339 339 339 340 343 344 344 345 346 346 345 345 346 346 347 347 346 345 345 344 344 344 345 345 344 345
342 342 342 342 342 342 342 340 337 335 333 337 346 349 349 348 349 350 348 347 348 349 351 351 350 350 350 350 350 350 350 351 350 350 350 350 350 350 349 348 348 346 344 343 342 342 342 341 341 340 340 339 339 340 340 340 340 340 339 338 337 337 337 337 337 336 336 337 338 338 338 338 338 339 342 345 345 345 346 346 346 346 345 346 346 347 348 347 346 345 345 345 344 344 344 343 344
337 336 337 338 339 338 337 334 330 330 328 334 345 349 348 347 350 352 348 347 349 350 352 352 351 351 351 351 350 350 350 350 349 348 349 348 348 348 347 346 346 345 343 342 341 340 340 340 340 340 340 338 338 338 338 338 338 338 338 337 337 337 337 337 336 336 337 338 340 339 339 339 339 340 343 346 347 346 346 346 346 345 345 345 346 347 347 347 347 347 345 344 343 343 342 343 343
333 332 331 330 330 329 328 326 324 325 328 333 342 346 346 345 348 350 348 348 349 351 352 352 352 352 351 351 351 351 351 351 350 348 347 346 346 345 345 344 343 343 342 341 340 340 340 340 340 340 339 338 337 338 337 338 337 337 338 338 337 337 337 337 336 336 338 340 341 341 340 340 340 342 344 346 347 347 346 346 345 344 345 345 345 346 346 346 347 346 345 343 343 342 342 341 342
329 327 326 326 325 325 323 323 323 325 331 334 339 344 344 345 347 347 348 349 350 351 352 352 352 352 352 352 352 352 352 353 352 349 345 343 343 343 343 342 341 342 341 341 340 340 340 340 341 340 339 338 338 338 338 338 338 337 338 338 338 337 337 337 336 337 339 341 341 341 340 340 341 344 346 346 347 347 346 344 343 343 343 344 345 346 346 346 346 345 343 343 343 342 341 341 340
329 327 324 325 325 326 326 325 326 329 333 337 341 342 344 344 344 346 348 350 351 352 353 353 353 353 352 352 352 352 352 352 352 349 345 342 341 342 342 342 341 341 341 341 341 340 340 340 341 341 340 339 339 339 339 338 338 338 338 338 338 337 337 337 336 337 339 341 342 341 339 339 341 345 346 346 346 346 344 343 342 342 343 344 345 346 346 345 344 343 342 342 342 341 340 341 340
330 327 325 325 323 326 329 328 334 336 334 339 341 339 342 343 343 347 350 350 352 352 352 353 352 353 352 353 352 352 352 351 350 348 345 343 341 341 342 342 342 341 341 340 341 341 341 341 341 341 340 340 340 339 339 338 338 337 338 338 338 337 337 337 337 337 339 341 342 341 339 339 341 344 346 346 345 343 342 342 342 343 343 343 344 346 346 345 343 343 343 341 341 341 340 341 340
328 324 325 326 322 326 328 327 337 342 335 338 340 338 340 340 342 349 350 350 352 352 352 353 352 353 352 353 352 352 352 351 351 350 347 344 342 342 342 342 342 341 341 340 340 340 340 341 340 340 340 340 339 339 339 338 337 338 338 338 337 337 337 337 338 338 340 341 341 341 341 340 340 343 344 345 343 341 341 341 342 344 343 342 343 345 346 345 343 343 342 340 340 341 341 341 340
328 324 323 324 322 324 326 326 333 338 336 336 337 341 344 343 345 349 350 350 351 351 352 353 352 353 352 352 353 352 352 352 352 351 349 346 344 342 342 342 341 340 340 340 340 339 339 339 339 339 339 339 339 338 338 338 338 338 338 337 337 338 338 339 340 340 342 341 342 343 343 342 341 342 343 343 342 341 341 342 343 344 343 343 343 345 346 344 343 342 341 340 337 336 339 341 339
327 325 322 323 323 322 324 326 330 335 337 336 336 339 346 350 348 349 351 350 350 351 352 353 352 353 352 353 352 353 352 352 352 351 349 346 344 343 342 341 340 340 339 339 339 339 339 339 339 339 339 338 338 338 338 338 339 338 337 337 337 338 340 341 342 342 343 343 344 345 345 345 343 344 344 344 343 342 342 342 343 344 343 343 344 346 346 344 343 340 339 339 332 327 332 335 336
325 323 321 322 323 322 324 325 328 337 338 337 337 335 344 353 349 348 351 350 350 350 351 352 352 353 352 353 353 352 353 352 350 348 347 345 343 343 341 340 340 339 339 338 339 339 339 339 338 338 338 338 339 339 339 339 340 339 337 336 338 340 342 342 343 343 344 344 345 346 347 346 345 346 346 346 344 343 343 343 344 344 343 343 345 346 347 345 342 338 337 338 330 322 325 328 330
327 325 323 322 322 322 325 326 328 338 338 337 338 333 344 355 350 348 350 350 350 350 351 352 352 352 352 352 352 353 353 352 349 348 348 346 343 341 341 340 340 339 339 339 338 339 339 339 338 338 338 338 339 340 341 341 340 339 336 336 339 341 342 343 344 343 344 345 346 347 347 347 347 348 348 347 345 344 344 344 344 344 343 343 345 346 347 345 341 337 337 338 331 325 326 325 324
326 325 323 322 322 321 325 327 328 335 338 338 339 336 345 355 350 348 349 350 350 349 350 351 351 351 351 352 352 352 353 352 351 351 351 349 346 343 342 340 340 340 341 340 339 338 338 338 338 338 338 339 339 340 340 341 340 339 337 336 339 342 343 343 344 343 343 344 345 347 347 348 348 349 348 347 345 344 344 344 344 344 343 343 345 347 347 345 340 338 338 337 331 328 329 328 326
325 324 323 322 322 322 324 326 326 332 338 340 342 340 344 352 350 349 349 349 349 349 350 350 351 351 351 352 352 352 352 352 352 352 352 352 350 348 345 343 342 341 341 341 340 339 339 339 338 338 338 339 339 339 340 340 339 340 339 338 338 341 342 342 343 343 342 343 344 345 346 348 349 349 349 347 347 346 345 345 346 345 344 344 345 347 347 344 340 338 338 335 329 327 330 332 333
325 324 323 321 322 323 324 327 326 330 338 344 345 341 341 348 350 349 348 349 349 349 350 350 350 350 350 351 351 351 352 351 352 352 351 352 351 350 348 346 344 343 342 342 341 340 341 341 340 339 339 339 340 339 339 339 339 340 340 340 340 340 342 342 343 343 343 343 343 343 345 348 350 350 350 349 349 348 347 347 347 346 345 344 345 346 345 343 340 339 337 332 329 330 331 334 336
325 323 321 320 323 322 323 327 326 328 337 344 346 342 343 349 351 350 348 348 349 348 349 350 350 350 350 350 351 351 351 351 351 351 351 351 350 350 348 346 345 344 344 343 342 342 342 342 341 340 340 339 339 339 339 340 339 340 341 341 342 341 342 343 344 345 345 344 343 343 344 347 350 350 351 351 351 350 349 349 349 347 346 344 345 345 344 343 340 339 336 331 330 329 329 333 335
323 323 321 321 323 322 324 327 327 327 331 339 342 339 345 353 353 353 349 347 349 348 348 349 349 350 350 350 350 350 350 351 351 351 350 350 350 348 347 345 345 344 344 344 344 344 343 342 341 340 340 340 340 339 339 340 340 340 341 342 343 344 344 344 346 345 345 344 344 343 343 346 350 350 351 352 352 351 350 350 349 349 347 345 345 344 344 343 340 339 335 329 326 323 326 333 334
322 323 323 322 323 323 324 324 325 322 323 335 337 330 342 356 351 352 351 348 350 348 347 348 348 349 349 349 350 350 350 350 350 350 350 349 348 347 346 345 344 345 346 346 346 346 345 344 343 343 341 340 340 340 340 340 340 340 340 341 342 343 343 343 343 343 342 341 342 342 343 346 349 349 350 351 352 351 350 350 350 349 348 346 346 344 344 343 340 339 333 324 320 320 327 334 334
320 323 325 323 323 323 323 323 323 321 323 333 333 328 339 350 347 349 352 351 351 349 348 348 347 348 348 349 349 349 349 350 350 350 350 349 348 347 346 346 346 346 346 346 347 347 347 347 347 346 345 342 340 340 341 340 340 340 340 340 339 340 339 339 340 340 339 339 339 341 342 344 347 348 349 350 351 351 350 349 349 349 348 346 346 345 344 343 340 339 333 324 321 323 328 333 334
320 325 327 324 324 323 323 322 321 324 326 327 330 332 334 339 344 347 349 351 351 350 350 348 347 347 348 348 348 349 349 349 350 349 350 349 348 347 345 345 345 344 344 346 347 347 348 348 348 348 348 346 344 342 341 340 340 340 339 339 339 339 338 337 338 339 340 340 340 340 341 342 344 346 348 348 349 349 349 349 349 349 347 345 346 345 345 344 341 340 334 324 322 324 327 332 335
322 325 325 325 325 324 324 323 321 324 323 320 325 330 328 334 348 347 345 351 351 350 350 347 347 347 347 348 348 348 349 348 349 349 349 349 349 348 345 342 341 341 343 345 345 346 347 347 347 348 348 348 348 346 344 342 340 340 340 340 339 338 338 337 338 339 340 341 340 340 341 341 342 344 346 346 346 347 348 349 349 349 347 344 345 345 345 344 341 340 335 325 322 324 326 331 335
323 324 324 323 322 324 326 324 322 323 321 318 322 324 322 328 343 344 343 348 349 350 350 347 346 346 347 348 347 348 348 348 348 348 348 348 348 348 345 343 341 340 342 343 344 345 346 347 347 348 348 348 348 348 347 345 342 341 340 340 340 339 339 338 338 339 340 341 340 340 340 340 341 342 344 345 345 346 347 348 348 348 346 344 343 343 343 343 341 340 336 326 321 323 325 330 334
322 323 323 322 323 325 325 327 325 320 318 318 320 323 321 320 329 339 341 344 346 347 348 347 345 344 345 347 347 348 347 348 348 348 348 347 347 347 347 347 345 343 344 345 346 346 346 347 347 347 347 347 347 348 348 346 342 341 340 340 340 339 339 339 339 339 339 340 340 339 340 340 340 341 342 343 343 343 345 347 347 347 346 344 342 342 342 342 341 340 334 325 320 322 325 329 333
321 324 322 321 325 324 320 321 321 316 316 320 321 322 321 317 324 337 339 340 344 344 346 346 345 344 344 345 346 347 347 347 347 347 348 347 347 348 348 348 348 347 347 347 347 347 347 347 347 347 347 347 347 347 347 346 343 341 340 339 339 338 339 339 339 339 339 338 338 338 339 340 340 341 342 342 342 342 343 346 347 346 345 342 340 340 341 342 342 337 329 322 319 320 324 329 331
321 324 321 319 321 320 317 317 319 317 320 327 325 321 319 319 327 339 339 338 339 341 343 344 343 343 343 344 345 346 346 346 347 347 347 347 347 347 347 347 348 348 348 348 348 347 348 347 348 348 348 348 348 347 347 347 345 344 343 340 339 338 338 338 339 339 339 338 337 337 338 339 339 340 341 341 342 342 342 344 346 344 343 342 340 340 341 341 342 336 325 319 318 319 323 327 328
319 320 319 318 317 316 317 318 318 318 321 326 325 320 320 322 329 336 337 338 337 337 340 341 342 343 342 343 343 344 346 346 346 346 346 347 347 347 347 347 347 347 347 347 347 347 347 347 347 347 347 347 348 347 347 348 347 347 345 344 341 340 338 339 339 340 339 339 338 338 337 338 338 338 339 340 341 342 342 343 345 344 343 343 341 340 341 341 341 338 327 319 317 318 322 325 325
319 321 321 319 319 319 319 318 317 319 321 321 320 320 322 323 328 335 331 334 336 335 337 340 340 342 342 342 342 342 344 345 345 346 346 346 346 346 347 346 346 346 346 346 346 347 347 347 347 347 347 347 348 348 347 348 348 347 347 346 344 343 341 340 339 340 340 340 340 339 337 336 337 336 337 339 341 342 343 344 345 344 343 343 342 341 341 341 340 338 330 321 317 318 320 323 324
319 321 320 318 322 323 320 321 323 322 320 320 321 325 331 330 334 338 331 330 336 335 336 337 337 340 340 340 341 341 343 343 344 345 345 346 346 345 346 346 346 346 346 347 346 346 347 346 346 346 345 346 347 347 348 347 347 348 347 347 346 346 344 342 341 341 340 339 340 340 339 336 336 335 335 337 340 342 343 344 345 343 342 342 342 342 341 340 340 338 332 323 318 318 319 321 322
320 319 318 319 323 321 318 320 323 320 316 320 325 327 331 331 332 340 334 331 336 337 337 337 335 337 338 338 339 339 341 342 343 344 344 345 345 345 346 345 345 346 346 346 346 345 346 345 345 345 345 346 347 347 347 346 347 347 347 347 347 346 346 345 344 342 340 339 339 339 339 337 336 336 335 336 338 342 343 344 344 343 342 341 341 343 342 341 340 339 334 326 320 318 319 321 322
320 318 319 320 320 320 321 319 317 317 316 321 324 323 325 325 331 343 340 334 336 337 339 339 336 337 336 336 338 338 340 341 342 343 344 344 345 345 345 345 345 345 345 345 345 344 345 344 344 343 343 345 346 346 347 347 347 347 347 347 347 347 346 346 345 344 342 341 339 338 338 338 337 336 336 336 338 340 342 343 344 343 341 340 341 342 342 341 340 339 336 330 324 319 318 320 322
321 321 321 321 319 317 320 320 317 317 318 320 322 324 325 326 332 343 340 336 340 338 338 339 338 338 337 336 338 337 338 339 340 342 343 343 344 344 345 345 344 344 344 344 344 344 345 344 343 343 343 343 344 345 346 346 346 346 346 346 346 346 346 346 345 344 344 343 341 339 338 337 336 336 337 338 338 339 341 342 343 343 341 341 341 341 342 341 340 340 338 335 329 322 318 319 321
321 321 319 321 322 317 318 321 320 319 319 320 320 320 324 331 339 345 342 341 342 339 338 340 338 337 337 337 338 337 337 338 339 340 341 342 343 343 344 344 344 344 344 344 344 345 345 345 344 343 343 344 346 346 346 346 346 346 346 346 346 346 346 346 346 345 345 344 342 340 339 337 335 335 337 339 340 339 339 340 341 342 342 341 341 340 340 341 341 340 340 339 335 326 319 317 319
320 319 317 317 319 319 318 319 320 319 319 320 318 315 324 339 346 348 348 344 340 338 340 340 337 336 337 338 339 338 337 338 338 339 340 341 342 343 343 344 343 343 344 344 344 345 345 345 345 344 344 345 346 346 346 346 346 345 346 346 346 346 346 346 346 345 345 344 343 342 341 339 337 335 335 337 339 340 339 340 340 341 342 342 342 341 340 341 341 341 340 340 339 333 323 317 318
321 320 319 317 318 319 317 318 319 318 319 325 322 314 321 339 342 344 351 347 340 338 339 339 336 334 336 338 338 339 339 338 338 338 339 340 340 341 342 343 344 343 344 344 344 345 345 345 345 344 345 345 345 345 345 345 346 346 346 346 345 346 346 346 346 346 345 345 344 344 343 342 340 336 334 334 336 338 339 340 340 340 341 342 342 342 341 341 340 341 341 341 340 338 330 321 317
Wind_Speed
9 8 6 6 5 6 5 3 1 1 1 1 2 1 1 1 2 2 3 3 1 3 6 11 15 12 5 4 7 8 6 3 4 3 3 12 29 32 30 31 29 28 28 28 27 27 26 25 24 22 21 20 20 21 23 24 24 24 23 22 21 21 20 20 20 19 17 15 13 13 14 14 13 13 13 12 11 10 10 10 10 10 9 9 9 8 8 8 9 9 9 8 8 9 9 9 8
8 8 7 7 5 4 2 1 1 2 2 2 2 1 1 1 2 2 3 3 2 8 11 15 15 10 9 10 12 9 7 3 2 6 12 26 35 30 30 31 29 28 28 28 27 26 26 25 24 23 22 20 21 22 22 23 24 24 23 21 21 21 20 20 20 18 15 13 13 14 14 13 13 13 13 11 10 10 10 10 10 9 9 9 9 8 8 8 8 9 8 8 7 8 9 9 8
8 8 9 8 5 2 2 1 0 0 3 1 3 2 0 2 1 2 3 4 8 16 15 16 13 10 11 10 6 4 3 1 6 14 22 32 35 32 32 30 29 28 28 28 26 26 25 25 24 23 22 21 21 22 22 23 23 23 22 22 21 21 21 20 19 16 14 13 13 14 13 13 13 13 12 10 10 10 10 10 9 9 9 9 9 9 8 7 8 8 7 7 7 8 8 8 9
8 8 9 7 3 1 2 1 1 2 2 1 3 3 0 0 1 4 6 11 17 19 16 13 8 5 8 6 4 5 5 5 13 22 28 33 34 34 33 31 29 27 27 27 26 26 25 25 25 24 23 22 21 21 22 23 23 23 22 22 22 21 20 19 17 14 13 13 13 13 13 13 12 12 11 10 10 10 9 9 9 9 9 9 9 8 8 7 7 7 7 6 7 7 8 8 8
9 9 9 4 2 0 1 0 0 2 1 2 1 4 2 1 4 5 8 15 17 15 14 11 5 5 8 6 4 4 6 10 17 25 32 34 32 34 33 31 30 28 28 27 27 26 25 25 25 24 24 23 22 21 21 21 22 22 22 22 22 21 19 17 15 13 12 13 13 12 12 12 12 11 10 10 10 10 9 9 9 9 9 9 9 8 8 7 7 7 6 6 6 6 7 7 7
11 12 9 1 1 1 0 0 1 1 3 4 2 3 2 4 6 7 10 13 11 13 13 10 8 8 8 6 4 6 10 12 20 27 33 34 32 34 33 32 30 29 28 27 27 26 25 24 25 24 24 23 22 21 20 21 21 21 21 21 21 19 17 16 14 12 12 13 13 12 11 11 11 10 10 10 10 10 9 9 9 8 9 8 8 8 7 7 6 7 6 6 6 6 7 7 7
10 11 7 2 1 1 1 1 2 3 3 4 3 2 4 6 10 10 9 9 8 10 9 11 15 11 6 4 7 9 6 9 25 31 34 34 33 34 32 32 31 29 28 28 27 26 25 24 25 24 24 24 22 21 20 21 21 21 21 20 19 17 16 15 13 12 11 12 12 11 10 10 10 10 10 10 10 10 9 9 8 8 8 8 8 7 7 6 6 6 6 5 5 6 6 6 6
9 6 4 1 1 1 1 2 3 3 3 3 2 4 8 10 13 10 6 5 5 7 9 14 15 9 3 3 6 5 4 12 29 32 33 34 33 33 32 32 31 30 29 28 27 26 26 24 24 24 24 24 22 22 21 21 21 21 20 19 18 16 15 14 12 11 11 11 11 11 10 9 9 9 9 9 10 9 9 9 8 7 7 7 7 7 7 6 6 6 6 5 4 4 4 5 5
10 3 2 0 1 1 1 2 3 3 3 3 1 6 12 14 14 9 6 5 6 9 12 13 8 5 6 8 8 5 8 17 29 32 33 33 33 34 32 31 31 32 30 29 28 27 26 24 24 24 24 23 23 22 21 21 21 21 19 18 17 15 14 13 12 10 10 11 10 10 9 9 9 9 9 9 9 9 9 8 8 7 7 7 7 6 6 6 5 5 5 5 4 4 3 4 4
11 2 1 1 1 2 3 3 3 2 4 3 5 11 15 15 13 10 8 7 10 11 10 9 7 10 11 9 8 7 12 20 29 32 33 33 33 33 32 30 30 31 30 29 27 26 26 24 24 24 24 23 23 22 22 21 20 20 18 18 16 15 13 12 11 10 10 10 10 9 8 8 8 9 8 8 8 8 8 8 7 7 6 6 6 6 5 6 5 5 5 5 4 4 3 3 4
7 2 0 2 1 2 2 2 3 3 3 1 6 14 18 17 13 9 9 9 11 11 10 9 9 15 13 7 7 8 13 22 30 33 33 33 32 32 32 30 29 30 29 29 27 26 25 25 24 24 24 23 23 22 22 21 20 19 18 17 16 15 13 12 10 9 9 9 9 8 7 8 8 8 8 7 8 7 7 7 7 6 6 6 6 6 6 6 5 5 4 5 4 4 4 3 3
3 1 2 1 1 2 3 2 4 3 2 2 5 12 19 19 13 8 9 10 10 10 9 8 12 17 9 4 8 9 15 24 30 32 33 33 32 32 31 30 30 29 28 28 27 26 25 25 24 24 23 23 23 22 22 21 20 19 18 17 16 15 13 11 10 9 9 8 8 8 7 7 8 8 7 7 7 7 6 6 6 5 5 6 6 6 6 5 5 5 4 5 5 4 4 3 3
3 3 3 0 3 2 2 2 3 1 1 3 6 12 20 19 12 12 12 10 10 9 6 10 19 16 6 6 11 12 18 26 30 31 33 33 33 32 31 30 29 28 28 27 26 26 25 25 24 24 23 22 22 21 21 21 20 19 18 17 16 14 13 11 10 8 8 8 8 7 7 7 8 8 7 6 7 6 6 6 5 5 5 6 6 6 5 5 5 5 5 6 6 5 5 4 3
6 2 3 1 1 1 2 2 3 3 3 4 9 15 20 15 12 18 16 10 8 9 7 14 22 13 8 10 11 17 22 28 30 30 32 32 32 32 31 30 28 28 27 27 26 25 25 25 25 24 24 23 23 22 21 21 20 20 17 16 15 14 13 11 10 9 8 8 7 7 6 6 7 7 6 6 6 5 5 5 5 5 4 5 4 5 5 5 6 5 5 6 6 6 5 4 4
9 1 1 1 3 3 2 2 2 3 4 3 12 20 16 10 15 20 18 13 6 10 12 15 19 8 9 12 12 24 27 29 32 30 31 31 32 31 30 29 27 28 27 27 26 25 25 25 26 25 24 24 23 23 22 21 20 19 17 16 15 14 12 11 10 9 8 8 7 7 6 6 6 7 6 5 4 4 4 4 4 4 3 4 4 5 5 5 5 5 5 5 6 6 5 5 4
11 1 2 1 3 2 2 2 1 1 4 2 15 23 11 5 17 16 13 14 10 16 14 16 19 3 11 17 16 30 30 31 32 30 31 31 32 31 30 29 27 28 27 27 26 25 25 25 26 25 25 24 24 23 22 22 21 19 17 15 14 13 12 11 11 9 8 8 7 7 6 6 7 7 6 5 4 3 3 3 3 4 3 3 4 5 4 4 4 4 4 5 5 5 5 5 4
9 3 1 1 2 2 2 1 1 1 4 3 15 22 10 5 14 11 7 11 17 21 10 14 17 2 11 18 19 33 31 32 32 30 32 30 32 30 30 30 29 28 26 27 27 26 25 25 26 25 26 24 24 23 23 22 21 20 18 16 15 13 13 11 11 10 9 9 8 7 7 7 7 7 6 5 4 3 2 2 2 3 3 3 4 4 4 4 4 3 4 4 4 5 5 5 5
6 2 1 3 3 3 3 3 4 3 2 5 14 20 14 9 12 11 9 9 17 17 7 15 11 1 12 16 22 33 31 33 32 31 32 30 30 29 29 29 30 29 27 28 27 27 25 25 26 25 26 25 24 24 23 23 22 21 19 17 16 14 13 12 12 11 10 10 9 8 7 7 7 6 5 4 4 3 2 2 2 3 3 2 2 3 3 3 3 3 4 3 3 4 4 4 4
7 2 1 4 4 4 6 6 5 2 3 7 12 18 16 13 17 16 9 9 15 11 7 13 10 10 15 18 27 32 32 35 33 33 32 30 31 30 29 29 30 30 29 29 28 28 26 25 26 25 26 25 25 24 24 24 23 22 20 18 17 15 14 13 13 12 11 10 9 8 7 7 7 6 5 4 4 3 3 3 3 3 2 2 2 2 2 2 3 3 3 2 2 2 3 2 2
8 5 2 6 6 5 10 12 11 7 5 10 10 13 12 16 21 16 10 10 11 9 12 15 15 20 22 25 33 32 33 35 33 32 31 30 31 31 31 30 31 31 30 30 29 29 27 26 26 25 26 26 25 25 25 25 23 22 21 19 17 16 16 15 14 13 12 10 10 8 8 8 7 7 6 5 4 4 4 4 3 4 3 3 2 2 2 2 2 3 3 2 1 1 1 0 1
8 9 4 5 4 5 13 15 14 13 8 15 14 10 9 17 20 16 17 11 4 11 21 24 25 28 29 33 35 33 35 34 32 31 30 30 30 30 30 30 31 31 30 29 30 30 28 27 27 26 25 26 26 26 26 25 24 23 21 20 18 18 18 16 14 13 12 11 10 9 8 8 7 7 7 5 4 4 5 4 4 4 4 3 2 2 1 1 1 1 2 1 1 0 1 2 3
5 9 10 9 6 5 11 10 6 8 9 15 14 11 13 18 16 19 24 11 8 21 29 29 31 32 34 38 37 36 36 34 33 31 32 31 29 31 30 30 31 31 31 30 31 31 30 29 27 26 26 26 26 26 26 25 25 23 22 20 20 19 18 16 14 13 12 11 10 10 9 8 8 8 7 6 5 5 5 5 4 3 3 2 1 1 1 1 1 1 1 1 0 0 1 3 3
5 6 11 13 13 11 15 15 8 3 8 14 14 15 20 17 11 21 27 17 13 21 30 30 30 32 35 40 39 38 37 35 35 33 33 32 31 32 30 32 32 32 32 31 32 31 31 31 28 27 26 26 26 26 26 26 25 23 22 21 20 19 18 16 14 13 12 11 11 10 9 8 8 8 7 6 6 5 6 5 4 3 3 1 1 0 1 2 2 2 2 1 1 1 2 3 3
10 6 7 12 15 16 22 23 16 8 8 15 17 15 19 18 12 18 27 23 11 12 26 30 29 33 36 39 40 39 38 37 36 34 34 32 33 33 32 33 33 34 33 32 32 32 32 31 30 28 27 26 26 26 26 25 24 22 21 21 20 19 17 16 14 13 13 12 11 10 9 9 8 8 7 7 7 6 6 6 4 3 2 1 1 1 2 2 3 3 3 2 2 3 3 4 4
11 8 7 10 15 21 25 24 21 16 15 16 17 14 21 25 17 17 26 24 10 9 23 29 31 36 38 40 40 39 38 37 36 34 33 32 32 32 32 33 34 34 34 33 32 32 32 31 30 29 27 27 27 27 26 25 24 22 21 21 20 19 18 16 15 14 13 13 11 10 10 9 9 8 8 7 7 7 6 5 4 3 2 2 2 2 2 3 3 4 4 4 4 4 5 5 6
8 10 10 11 15 21 23 21 21 20 18 17 16 12 21 24 14 12 22 20 10 13 24 28 34 37 38 39 39 40 39 38 37 35 35 33 32 31 32 33 34 35 34 32 32 32 31 31 30 29 28 27 27 27 26 25 23 22 21 20 20 19 18 16 15 15 14 13 11 11 10 10 9 8 8 8 8 7 6 5 3 3 2 3 3 3 3 3 3 4 4 5 6 6 5 6 7
7 12 14 15 18 21 20 19 24 20 14 18 19 13 18 20 11 7 16 19 14 20 27 30 35 38 39 39 39 40 39 39 37 36 35 34 34 33 33 34 34 34 33 33 32 31 31 31 30 28 28 27 27 27 25 24 22 21 21 20 20 19 17 16 16 15 14 13 11 11 11 10 10 9 10 9 8 7 6 4 3 2 2 3 4 4 4 4 5 5 5 6 6 6 6 6 7
12 13 12 14 14 17 17 16 22 15 7 20 23 10 12 15 10 10 18 23 21 26 31 32 35 36 38 38 37 38 37 37 36 36 36 36 36 35 35 34 34 34 34 33 32 31 31 31 29 28 28 28 28 27 25 24 22 21 21 20 20 19 17 17 16 15 15 13 12 12 12 11 10 10 10 10 9 7 6 4 3 3 2 4 5 5 5 5 6 6 6 6 6 7 7 7 7
11 8 6 9 6 9 13 12 17 11 5 19 20 6 5 12 11 13 22 26 26 29 32 33 34 34 36 36 36 36 36 36 36 37 37 36 36 35 35 34 33 34 33 32 31 31 31 30 29 29 29 28 28 27 26 25 23 22 21 21 20 19 18 17 16 15 15 13 13 13 12 12 12 11 11 10 9 7 6 5 4 3 4 5 5 6 6 6 6 6 6 6 7 7 7 7 8
7 4 3 5 5 6 8 6 11 8 6 23 21 3 8 14 11 15 24 30 30 29 31 32 33 32 33 35 35 35 36 36 37 38 37 36 36 35 34 33 33 33 32 32 32 32 31 31 30 29 29 29 28 27 26 25 24 23 22 21 20 19 19 17 17 15 15 14 13 14 13 13 13 12 11 10 9 8 6 6 5 4 5 6 6 7 7 7 7 7 7 7 7 8 8 8 7
3 3 2 2 2 5 6 3 3 1 8 29 22 4 10 12 11 20 29 34 34 30 29 31 32 32 32 34 36 36 36 37 38 38 37 36 36 35 34 33 33 32 32 32 32 32 31 31 31 30 30 29 29 28 27 26 25 24 22 21 21 20 19 18 17 16 15 15 14 14 14 14 14 14 13 11 9 8 7 7 5 5 6 7 8 8 7 8 8 8 8 8 7 8 9 8 7
1 2 3 2 2 5 7 5 6 5 7 23 18 4 6 7 11 24 32 35 34 30 29 31 32 33 33 34 35 35 36 36 35 36 36 36 36 36 35 34 34 33 33 32 32 32 31 32 31 31 31 30 30 29 28 26 25 24 23 22 21 20 20 18 17 16 16 15 15 15 15 15 15 14 14 12 10 9 9 8 6 6 7 8 9 9 8 8 9 9 9 8 7 9 10 10 9
2 2 4 2 3 4 6 6 5 8 7 12 13 4 1 3 11 24 31 34 32 27 28 31 31 33 33 33 34 35 35 35 35 35 36 37 37 36 35 34 34 33 33 32 32 33 32 33 32 32 31 30 30 29 28 27 26 25 24 23 22 21 20 18 17 17 16 16 16 15 15 15 15 15 14 13 11 10 10 9 8 8 8 8 10 10 9 9 9 10 9 7 8 10 11 12 11
2 1 3 4 4 4 4 6 4 6 9 10 13 7 3 2 12 23 29 33 30 25 27 30 30 31 32 31 32 33 36 37 38 39 38 38 38 37 36 34 34 33 32 32 33 33 33 33 33 32 32 31 30 29 28 27 26 25 24 23 23 21 20 19 18 18 17 17 17 16 15 15 15 14 13 12 11 11 11 10 10 9 9 9 10 10 10 10 10 10 9 8 8 8 8 10 11
4 4 3 3 4 4 5 5 3 4 7 9 12 11 6 1 8 20 27 32 29 25 27 29 30 30 32 32 32 33 36 38 41 42 40 40 39 37 36 35 34 33 32 33 33 33 33 33 33 32 32 31 30 29 28 27 26 26 25 24 24 23 22 21 20 19 18 19 18 16 15 15 15 13 12 12 12 12 12 12 11 10 9 10 11 11 11 11 10 10 9 8 8 7 6 6 9
7 6 4 4 4 5 5 6 5 5 5 6 10 12 7 4 8 14 22 28 25 22 23 25 27 28 30 32 32 33 36 41 43 42 40 40 39 38 37 36 35 34 33 33 33 33 33 33 33 33 32 32 31 30 29 29 28 27 27 26 26 25 24 23 21 20 20 20 19 17 16 16 14 13 12 12 13 13 12 12 11 10 10 10 11 12 11 11 10 10 9 9 9 6 5 5 7
5 3 3 4 4 6 4 5 8 3 5 7 9 10 6 7 9 11 19 24 20 18 19 21 26 28 30 32 34 36 38 41 39 38 39 39 39 38 37 36 35 35 34 34 34 34 34 34 34 34 33 32 32 32 31 31 30 29 29 29 28 27 25 24 23 22 22 21 20 18 17 16 14 13 13 13 13 13 12 12 11 10 10 10 11 12 12 12 11 11 10 11 10 6 5 4 6
5 4 4 5 5 6 5 4 8 2 4 6 5 7 7 7 8 9 16 18 17 20 22 24 28 29 31 33 35 37 37 35 34 36 39 38 39 39 38 37 36 36 35 34 34 34 34 34 34 34 33 33 33 33 32 32 31 30 30 29 29 27 25 24 23 23 22 21 20 19 18 17 15 14 13 14 14 13 13 12 11 10 10 11 12 12 12 12 11 12 12 12 10 6 5 5 7
5 4 4 5 5 4 6 5 7 2 3 4 4 7 7 5 7 9 15 17 21 28 30 30 33 31 31 34 36 36 34 32 34 38 40 40 40 40 39 38 37 36 35 34 34 34 34 34 35 34 34 34 34 34 34 33 32 30 29 28 28 27 26 24 23 22 22 22 22 21 20 18 16 15 14 14 15 14 13 12 10 10 11 12 12 13 13 12 11 12 12 12 10 7 6 7 8
5 5 4 5 3 1 4 5 4 3 3 3 3 4 4 1 5 8 14 18 18 23 27 27 29 32 34 38 39 38 36 36 37 39 41 42 42 41 41 40 38 37 36 35 35 35 36 36 36 35 35 35 35 34 34 33 32 30 29 28 27 27 26 25 24 23 23 23 23 22 21 20 18 16 15 15 15 15 14 12 10 10 11 12 13 13 13 12 11 11 12 12 11 9 8 9 9
5 6 7 6 4 4 5 4 5 4 3 1 4 2 5 3 7 7 11 15 14 17 21 22 25 30 32 33 34 36 38 39 40 41 43 44 44 44 43 41 39 39 38 37 37 36 37 36 36 36 36 36 35 35 34 34 33 32 31 30 29 28 28 27 27 26 25 25 24 23 23 22 21 19 17 16 16 15 14 13 11 11 12 13 13 13 12 11 11 12 12 11 11 9 8 10 9
5 6 9 8 5 4 3 3 3 4 5 3 4 0 6 4 8 9 8 11 13 15 17 21 26 28 29 30 31 34 36 38 40 41 44 45 46 45 43 42 41 41 40 39 37 37 36 35 35 35 36 36 36 35 35 35 35 34 34 34 33 32 31 30 29 28 27 26 25 23 23 23 22 20 19 17 16 16 15 14 13 12 13 13 14 14 13 12 11 12 12 10 10 8 8 10 10
6 6 9 9 7 6 4 2 2 1 4 5 1 4 5 4 6 10 9 12 15 15 14 19 25 28 30 32 33 35 37 38 39 40 42 45 47 47 46 45 44 43 41 39 38 37 36 35 35 34 35 36 36 37 36 37 37 36 36 35 35 34 33 31 30 28 27 26 25 24 24 23 22 20 19 18 18 17 16 15 14 13 14 14 14 14 13 12 12 12 11 9 9 8 9 11 10
5 5 8 8 7 8 7 6 4 4 4 6 3 4 3 5 6 9 11 13 14 15 15 16 23 29 32 34 36 37 39 40 41 42 42 44 47 49 48 46 45 44 42 41 40 40 38 37 36 35 35 35 35 36 37 38 38 38 37 36 36 35 34 32 30 28 27 26 26 25 24 23 22 21 19 19 18 17 17 16 15 14 14 15 15 15 14 12 12 13 11 9 9 10 10 10 10
5 6 7 7 7 7 6 6 5 3 2 6 5 5 4 6 6 5 9 12 13 16 19 16 21 29 33 36 38 39 40 42 43 44 45 46 49 50 50 48 45 44 43 42 42 41 40 39 38 37 36 35 35 36 37 38 38 38 38 37 37 36 35 33 32 30 28 27 26 26 25 24 23 22 21 20 19 18 18 17 16 16 15 15 15 14 14 13 13 13 11 9 10 11 10 11 11
5 6 2 1 4 4 4 6 4 2 3 7 7 6 5 6 5 3 7 11 13 15 16 16 21 30 34 37 39 39 40 41 43 45 46 48 50 52 51 49 46 45 45 44 42 42 41 41 40 40 38 37 36 36 36 37 38 39 39 38 38 36 35 35 34 32 30 28 27 26 26 25 24 23 22 22 20 19 19 18 18 17 16 16 15 14 14 14 14 13 11 10 11 11 11 12 11
5 5 3 3 1 2 2 2 3 2 5 9 9 8 7 6 5 5 7 9 14 13 11 13 18 26 33 37 39 41 41 42 44 45 47 48 49 50 50 50 49 47 47 46 46 45 44 44 43 42 41 39 38 37 36 36 37 38 39 39 38 37 36 36 35 34 32 30 28 27 26 25 24 24 23 23 22 21 20 20 19 17 17 16 15 15 14 14 14 13 12 12 12 12 12 12 13
6 5 4 2 4 3 1 1 2 4 8 7 8 9 8 9 6 6 8 11 15 15 14 15 17 24 35 40 41 44 45 45 44 45 47 47 48 48 48 49 49 48 49 49 49 48 48 47 46 45 44 42 41 40 38 37 37 38 38 39 38 37 36 36 35 34 32 31 30 28 27 26 25 24 24 24 24 23 22 22 20 19 18 17 16 15 14 13 14 13 12 12 13 13 12 13 14
6 5 6 4 2 2 3 2 2 6 7 5 7 8 6 10 6 7 11 12 14 16 18 20 22 28 37 41 43 45 46 46 46 46 48 48 49 49 49 50 50 49 49 50 50 50 50 49 49 48 47 45 44 43 41 40 39 38 37 37 38 37 36 36 35 34 33 32 31 30 29 28 27 26 25 25 25 24 24 23 22 20 19 17 16 15 14 14 14 14 13 13 13 13 13 14 14
8 6 6 6 4 4 6 4 2 5 5 5 6 7 4 7 4 10 13 12 16 21 25 30 32 36 42 46 47 46 45 47 48 49 49 50 51 52 52 52 52 51 51 51 51 51 51 50 50 49 48 47 46 45 44 43 42 40 37 36 36 36 37 36 35 34 33 32 32 31 31 30 29 27 26 25 24 24 25 25 23 21 19 18 17 16 15 14 15 15 14 13 12 13 14 14 14
8 6 6 6 5 5 5 4 4 5 4 4 2 5 5 5 5 10 14 15 21 26 31 35 37 41 45 45 42 40 43 46 48 49 50 52 54 54 53 54 54 54 53 53 52 52 52 52 51 51 49 48 48 47 46 45 44 42 40 38 37 36 36 36 35 34 33 32 31 31 31 31 30 29 27 25 24 24 26 25 24 22 20 18 18 17 15 15 15 16 15 14 13 13 15 15 15
5 5 5 6 7 5 3 4 6 3 2 3 2 3 6 5 5 6 8 13 17 22 28 30 32 39 39 32 30 35 41 45 46 48 50 53 54 54 53 54 54 55 54 54 54 54 54 53 52 51 50 49 49 48 48 46 44 44 43 41 39 38 37 37 36 35 33 32 31 31 31 31 31 30 29 27 26 25 26 26 25 23 20 19 19 18 16 16 16 16 16 15 14 15 16 16 16
3 5 7 6 6 6 3 4 2 2 3 4 3 3 5 3 6 5 6 9 11 14 18 20 27 35 31 24 28 36 41 44 47 50 53 54 54 54 54 54 54 55 55 55 56 55 55 54 52 51 50 50 50 49 48 47 45 45 44 43 42 40 39 38 37 35 34 33 32 31 31 30 31 31 31 30 28 27 26 26 26 23 21 20 20 19 18 17 17 17 17 16 15 15 16 16 16
6 6 7 4 4 3 3 2 2 2 5 5 2 4 4 4 5 4 5 8 10 12 12 14 22 27 24 24 31 37 41 45 48 51 53 53 54 54 55 55 55 56 57 57 57 57 55 54 53 51 50 50 50 50 49 48 47 46 45 44 43 42 41 39 37 36 35 34 34 33 32 32 31 31 31 31 30 29 27 27 27 25 22 21 21 20 19 18 18 19 19 18 16 16 17 17 17
6 5 7 6 3 4 4 3 5 5 5 5 3 4 5 5 5 4 7 9 11 12 11 12 15 17 20 27 33 37 40 42 44 48 51 52 53 55 55 56 56 56 56 57 57 56 56 55 54 52 51 49 49 49 49 49 48 47 46 44 43 42 41 40 38 36 36 36 36 34 34 33 32 31 31 31 31 30 29 28 28 27 24 23 22 22 21 20 20 20 20 20 18 17 18 18 18
2 4 6 4 3 5 5 4 4 4 4 3 3 4 4 6 6 7 10 12 12 12 11 12 14 18 24 30 35 37 38 40 44 49 51 53 54 56 57 57 57 57 57 57 56 55 55 56 55 54 53 51 51 50 50 49 49 48 47 46 45 43 42 41 39 38 38 37 36 35 35 34 34 33 32 32 32 31 31 30 29 28 27 25 24 23 23 22 22 22 22 22 20 19 19 19 19
4 4 6 4 1 2 3 3 3 4 4 3 3 5 6 5 5 9 11 12 13 13 12 12 14 21 30 36 38 38 39 42 47 50 52 54 55 56 57 57 57 57 56 55 54 54 55 56 56 56 55 54 54 53 51 51 50 49 49 48 47 45 43 42 41 40 39 37 37 37 36 35 35 35 34 33 33 32 32 31 31 30 29 27 25 24 24 24 24 24 24 23 22 21 21 20 20
9 7 7 7 4 4 4 4 3 3 5 4 3 6 7 5 5 8 10 11 11 13 13 11 14 22 31 38 41 39 39 43 47 49 52 54 54 55 56 56 55 54 54 53 53 53 54 55 55 56 55 55 55 54 53 52 51 51 50 48 47 46 45 43 42 42 41 39 38 38 37 36 36 36 36 35 35 34 33 32 32 31 30 29 27 26 25 25 25 25 25 25 25 23 23 22 21
Wind_Direction
170 165 165 154 161 162 177 214 248 300 63 276 264 310 247 186 108 99 116 121 119 162 136 128 144 147 127 142 143 103 69 130 163 139 164 152 151 158 158 155 156 154 153 150 150 148 147 146 143 146 149 147 148 150 148 146 146 147 147 145 143 143 143 143 141 137 136 138 140 136 130 125 119 113 108 103 101 99 98 94 89 86 82 82 80 79 78 76 77 77 78 80 85 88 90 93 93
173 159 157 151 168 180 202 209 303 342 38 334 284 216 239 39 90 84 135 168 149 150 138 127 132 120 101 120 126 99 61 56 179 136 131 146 151 159 159 157 158 156 156 153 152 151 150 146 144 150 150 147 149 149 147 147 147 148 149 146 144 143 144 144 140 138 140 143 139 131 126 121 116 111 108 105 104 100 96 92 87 83 79 79 78 79 77 75 78 76 75 76 81 86 89 91 93
173 158 158 153 161 214 314 23 239 49 61 343 285 256 157 27 99 82 121 135 128 136 133 126 119 105 107 106 103 92 82 74 154 134 134 149 154 159 160 159 159 159 158 155 154 154 152 148 148 151 150 147 147 148 147 147 148 149 149 147 145 145 146 144 141 142 145 144 133 127 123 120 116 112 110 107 103 98 94 90 85 82 80 79 79 82 82 79 78 77 73 71 75 81 86 87 90
166 158 157 146 142 248 333 37 177 111 74 252 279 283 206 196 113 61 95 119 128 130 128 126 100 92 121 109 97 96 108 141 148 140 143 155 157 158 159 159 161 161 159 156 156 155 153 151 151 152 151 148 146 146 147 148 149 149 149 147 147 148 148 145 143 145 144 138 129 125 123 121 118 115 111 105 102 98 92 86 81 78 79 79 79 82 84 83 80 79 75 70 68 74 82 84 89
159 152 155 135 100 324 29 31 311 104 211 197 247 276 230 156 103 69 103 123 132 129 125 124 85 88 106 104 113 125 142 149 150 148 149 155 158 157 158 160 162 163 160 158 158 157 156 156 154 154 153 149 148 147 148 150 149 149 148 147 148 150 149 146 144 144 140 133 128 126 124 122 120 116 109 104 102 97 91 83 77 75 76 76 78 81 82 82 81 80 77 73 68 67 76 83 86
159 152 167 165 11 294 76 214 283 248 241 177 183 267 175 124 115 105 108 113 122 129 129 121 119 115 91 74 69 131 148 154 157 155 152 155 159 158 158 161 163 164 162 160 160 159 159 159 155 156 156 152 151 150 151 152 150 149 148 149 150 151 149 146 144 141 136 132 129 127 127 126 123 117 108 104 101 96 90 84 77 74 74 74 76 80 83 81 79 80 77 73 69 65 69 79 82
159 154 182 268 326 237 121 208 243 245 249 181 187 200 130 122 128 125 112 106 109 124 135 131 132 117 88 86 82 120 151 172 161 155 153 155 159 160 161 163 164 166 165 163 161 161 161 161 157 158 159 156 155 153 155 155 153 151 151 152 151 151 148 145 144 140 136 134 131 130 131 129 125 118 108 103 101 96 89 82 77 73 72 72 75 78 83 82 78 80 79 75 69 67 69 76 83
156 140 172 250 333 114 114 248 240 221 233 223 225 152 136 136 137 136 124 123 125 126 136 139 138 108 82 135 100 132 178 171 159 154 154 156 160 162 163 164 166 167 165 164 162 163 163 162 159 161 162 160 159 156 158 159 156 154 154 154 153 151 148 146 145 142 140 136 133 133 135 131 126 118 108 103 101 96 87 78 74 74 73 72 75 79 82 87 86 83 84 83 75 71 71 78 84
160 116 115 215 338 347 318 282 258 233 240 244 215 142 138 145 144 140 127 112 128 131 140 146 144 115 114 113 105 142 157 163 158 153 156 158 162 163 163 164 166 166 164 164 163 165 165 163 161 163 165 164 162 160 162 162 160 158 157 157 155 153 151 148 147 145 144 140 138 138 137 132 128 121 110 104 99 92 83 74 72 72 72 72 75 79 82 88 90 85 85 86 82 78 70 73 79
163 141 78 40 44 343 312 296 267 238 250 217 163 154 145 151 147 141 132 123 139 132 143 152 126 123 125 108 109 144 153 162 158 155 159 159 163 164 164 165 166 166 165 164 164 167 166 164 164 165 167 167 165 164 165 165 163 162 162 162 158 156 154 151 150 150 149 144 143 142 140 136 133 127 114 104 96 88 80 72 69 67 68 72 76 80 83 86 89 88 90 89 82 81 72 68 72
153 193 92 48 73 319 263 288 277 263 274 190 149 159 154 153 144 136 132 130 144 131 139 144 118 123 117 104 117 146 158 164 161 158 160 161 164 166 165 167 168 168 166 165 164 167 167 165 167 167 168 169 169 168 168 169 167 166 168 166 162 160 157 155 156 155 153 148 147 147 145 141 139 132 119 106 93 86 81 73 68 64 66 71 78 81 77 79 83 85 92 94 87 88 82 73 67
131 201 127 70 182 240 220 261 270 271 293 140 143 163 158 153 145 149 145 139 144 132 146 149 139 132 105 98 133 150 161 166 166 161 162 163 165 166 166 168 169 171 168 167 166 168 167 167 170 169 171 171 172 172 171 173 171 170 172 170 165 164 161 162 162 160 159 153 152 152 152 149 144 137 127 111 94 90 85 76 69 64 67 69 74 75 72 75 80 80 82 89 86 88 90 88 79
174 166 122 60 203 206 242 268 256 202 197 181 160 167 161 157 161 165 148 138 146 141 168 163 148 136 95 123 143 156 162 168 169 164 165 165 165 166 166 168 170 172 171 170 169 169 169 170 172 172 173 173 175 175 174 177 176 175 176 174 169 168 167 168 168 167 165 159 157 158 159 153 145 141 133 116 98 97 87 75 69 64 70 70 72 76 79 83 84 83 81 84 80 78 81 87 96
184 162 154 265 247 263 268 256 261 171 209 215 158 163 165 168 172 164 147 135 156 158 169 165 153 132 114 135 151 167 166 171 170 166 167 166 168 168 168 170 171 173 173 173 172 173 173 173 174 174 175 176 178 178 178 181 181 179 178 177 174 172 173 174 175 174 171 164 163 166 166 156 146 143 135 120 106 102 87 73 71 69 75 81 86 92 93 90 89 90 85 87 86 83 80 83 94
192 22 124 289 331 317 258 220 260 179 216 221 162 163 164 176 174 167 159 149 159 166 151 157 161 137 155 164 172 175 169 171 171 167 167 167 170 170 172 173 173 174 175 175 175 177 176 176 176 176 178 179 180 180 181 183 184 182 179 180 179 179 179 181 182 179 176 170 171 174 173 161 149 145 137 127 115 102 86 74 74 79 87 95 98 97 94 95 97 100 100 96 94 91 89 93 99
204 283 35 308 312 309 270 232 8 146 244 211 159 161 150 157 169 168 175 159 140 159 154 157 167 160 179 177 176 173 169 169 170 169 169 169 172 173 175 176 176 177 177 177 178 180 179 178 179 179 181 181 182 182 183 184 184 182 182 184 184 185 185 188 187 183 180 178 180 182 177 168 157 150 144 138 125 108 95 81 77 89 95 96 96 94 92 97 102 111 118 105 94 91 90 98 105
198 223 17 285 272 252 270 240 110 165 248 173 156 162 141 125 164 162 177 160 142 156 162 164 172 261 186 178 172 169 167 170 171 171 172 172 173 174 176 178 180 179 180 180 180 182 181 181 181 182 183 184 184 184 185 186 183 183 185 185 186 189 189 191 189 185 187 186 188 188 184 173 159 152 151 148 136 119 106 87 78 89 93 94 92 95 95 98 110 125 126 111 95 89 88 95 103
175 167 199 235 243 228 221 213 206 198 214 174 168 167 153 146 162 153 145 137 140 151 154 166 173 272 182 175 169 168 167 171 172 173 174 174 174 175 178 180 182 182 181 182 183 184 183 183 183 184 185 185 186 186 187 186 185 186 187 187 189 190 189 193 191 189 193 192 194 192 183 169 155 150 152 153 145 130 119 108 99 94 92 95 96 102 96 99 117 129 129 125 101 88 87 89 97
190 169 198 223 219 219 214 208 220 249 148 175 184 172 162 161 161 155 148 135 143 140 129 154 145 135 162 166 167 170 170 173 175 176 176 177 178 177 180 182 184 184 183 184 184 184 185 185 185 186 187 186 186 188 189 187 187 188 188 189 191 190 190 195 195 195 198 197 199 194 178 165 155 153 159 162 156 143 136 133 123 115 119 115 118 115 93 102 121 127 136 135 103 87 86 83 93
206 199 229 238 226 240 248 241 243 271 164 166 189 175 164 163 161 158 150 149 160 160 152 154 148 148 156 162 168 171 172 176 178 178 179 179 182 181 182 184 186 187 186 186 185 185 187 186 187 188 188 188 188 190 191 188 188 190 190 190 192 192 193 198 200 200 200 202 202 193 177 167 162 165 172 172 164 159 155 146 132 129 131 121 131 143 119 123 129 134 141 126 93 100 113 116 171
190 199 225 241 235 241 251 253 252 269 218 180 176 163 161 165 166 159 147 145 197 202 184 177 172 165 161 163 170 173 173 178 179 181 183 182 184 185 186 187 188 189 188 189 187 187 187 186 189 189 189 190 190 191 191 189 189 191 191 191 193 196 197 200 202 201 201 204 200 190 180 172 172 180 185 179 168 168 169 156 142 141 140 128 131 150 162 175 158 151 152 133 110 168 202 247 237
183 213 229 246 262 262 260 270 268 268 215 179 166 163 170 166 172 169 158 160 211 206 197 189 182 174 168 168 171 173 175 178 180 183 185 185 186 187 189 190 191 191 190 191 190 190 190 189 191 191 191 192 191 192 190 189 190 192 192 192 196 199 201 202 203 201 201 201 195 188 184 181 183 188 192 189 183 177 175 166 151 153 161 153 129 134 231 242 269 291 277 247 277 237 266 279 260
231 238 227 240 247 253 269 278 284 263 172 169 175 180 168 162 186 183 178 190 211 209 198 189 185 179 173 171 171 174 177 179 182 185 186 186 188 188 190 191 193 193 192 193 192 191 192 192 193 193 194 193 192 191 190 191 192 193 194 196 198 200 203 205 204 201 200 197 192 190 189 189 190 194 198 198 198 190 182 175 164 163 175 181 154 187 255 257 274 282 288 291 295 258 272 290 270
228 250 231 244 247 252 266 272 277 263 196 185 182 173 166 174 190 186 196 207 225 227 196 186 181 175 172 172 174 177 179 181 184 187 188 189 190 191 193 194 195 194 193 195 194 193 193 194 195 195 196 195 193 191 192 192 193 195 196 199 199 202 206 207 205 202 200 197 193 193 194 196 196 198 198 200 205 200 189 180 174 174 181 198 212 258 272 268 264 266 277 282 278 263 259 262 241
223 242 245 253 257 259 265 271 274 263 241 208 179 172 184 189 180 181 204 211 233 223 187 181 174 171 173 175 177 179 180 182 185 188 190 193 193 193 195 196 196 196 195 195 195 195 194 195 196 196 196 195 193 192 193 194 195 197 198 201 202 204 208 207 206 203 200 198 195 196 199 202 202 200 196 199 206 202 193 184 180 189 198 227 248 274 278 275 272 274 287 287 280 269 256 244 226
218 231 245 251 254 260 266 269 268 260 247 211 180 186 198 191 174 187 207 205 216 197 178 176 173 171 174 177 180 182 183 184 187 189 191 195 196 196 198 198 198 197 197 196 196 195 194 195 195 195 196 195 194 193 195 196 197 199 201 204 204 207 207 205 204 202 201 199 198 199 203 207 207 203 199 204 207 200 193 187 188 206 228 256 266 281 285 284 281 293 305 295 285 279 263 239 222
243 248 253 254 256 263 266 266 266 262 247 207 189 197 197 186 180 203 203 196 195 179 171 174 173 174 176 179 182 184 186 187 188 189 191 196 198 200 200 199 200 199 198 198 196 195 194 194 194 194 195 196 196 195 197 197 199 200 202 205 206 208 206 204 204 201 201 201 202 204 207 210 211 207 204 209 208 199 198 195 201 223 247 265 272 279 287 295 289 293 299 289 282 277 264 238 221
268 270 270 266 264 269 262 260 266 267 250 208 193 184 180 180 207 211 186 185 188 176 170 174 177 177 178 180 183 186 188 188 190 191 191 195 197 200 200 198 199 198 199 199 196 195 194 194 194 195 195 196 197 198 199 200 200 201 203 205 206 207 206 205 204 202 203 203 206 209 210 211 212 211 208 211 208 202 206 208 222 238 256 269 277 281 284 292 289 289 282 274 270 262 254 235 216
273 278 279 284 303 284 258 253 259 256 235 197 174 124 179 195 217 197 177 176 179 175 171 175 179 179 180 181 183 187 190 190 192 195 195 195 196 198 198 198 197 197 199 199 198 198 196 195 196 196 196 196 198 200 201 202 202 203 205 206 206 207 206 206 205 204 205 206 210 213 215 214 213 213 211 212 208 207 214 222 238 249 265 271 280 285 284 286 284 286 274 262 257 249 244 228 210
293 281 228 287 346 302 262 254 250 243 193 172 155 125 220 210 203 172 174 173 168 171 173 176 179 181 183 183 184 188 191 193 195 197 198 197 197 198 198 198 198 199 199 199 200 199 198 198 198 198 198 198 200 201 203 204 204 205 206 207 207 208 208 208 206 207 208 209 213 216 217 216 215 215 215 215 212 216 224 235 248 257 271 274 276 278 276 281 282 282 274 263 255 243 238 227 216
304 299 242 278 315 273 280 284 185 125 177 168 161 224 221 209 196 171 174 174 169 170 175 179 180 183 186 186 187 189 192 196 199 199 199 199 199 199 199 199 199 201 200 200 201 200 200 200 201 201 201 201 202 202 204 205 205 206 207 208 208 210 210 210 209 210 211 211 215 217 218 218 218 218 219 222 224 228 236 244 251 258 269 270 273 273 272 280 284 282 274 268 262 245 237 234 234
14 278 290 320 203 252 299 293 168 137 182 174 173 243 226 205 186 173 174 174 174 173 177 182 182 184 188 189 190 191 194 197 201 202 202 202 202 201 201 201 201 202 202 202 202 201 202 202 203 204 204 204 204 204 205 206 207 207 209 210 210 211 212 211 210 211 213 214 216 217 218 219 220 222 223 228 233 238 243 248 251 253 261 266 273 278 277 278 280 280 275 273 268 250 239 239 245
357 203 250 267 217 265 314 307 218 170 155 182 199 219 242 210 173 172 175 175 176 175 179 184 185 186 188 191 192 192 194 197 201 205 205 205 204 204 203 202 202 203 203 204 203 202 202 203 205 206 205 206 205 205 205 206 207 208 209 210 211 212 212 212 211 213 215 215 216 216 216 219 222 223 226 231 236 240 244 248 249 249 255 261 268 275 276 276 276 278 274 273 271 257 244 241 246
297 206 236 249 232 266 286 312 295 164 147 188 216 227 284 252 168 169 177 179 178 179 182 186 187 188 189 193 195 194 194 197 201 205 205 206 206 205 205 204 203 204 204 204 205 205 204 204 205 206 207 207 207 206 206 207 208 209 210 211 212 213 213 213 212 213 215 215 216 216 217 219 220 221 224 229 235 240 244 247 247 246 250 257 264 270 273 274 275 276 274 272 273 263 246 241 243
199 211 225 258 246 255 248 279 310 155 176 194 206 227 253 278 166 171 180 181 181 185 186 186 188 189 190 193 198 198 197 199 203 204 205 206 206 206 206 206 206 206 206 206 206 207 207 207 206 207 207 207 207 208 208 209 209 210 211 212 213 213 213 213 212 213 213 215 216 215 216 217 217 219 222 229 236 241 244 247 248 248 251 257 262 265 270 274 276 278 276 275 277 268 254 251 242
171 194 196 215 238 256 237 256 262 173 193 210 203 221 218 174 181 177 180 183 185 189 187 187 190 191 192 194 200 202 202 204 206 205 205 206 206 207 207 208 208 208 209 208 208 208 209 209 209 209 209 208 208 209 210 211 211 211 211 212 213 212 212 212 212 212 212 214 215 214 215 214 215 219 223 230 236 241 244 247 248 249 253 257 262 266 272 276 277 278 274 277 281 280 291 279 236
180 184 216 225 236 268 250 259 277 192 178 231 212 217 216 187 192 182 178 181 187 188 185 191 194 194 195 196 201 204 207 209 207 205 206 207 208 209 209 209 210 211 211 211 210 210 211 212 212 211 211 210 210 211 211 211 211 210 211 211 212 211 212 212 212 211 212 213 213 214 214 213 214 217 221 228 233 238 242 246 250 252 256 261 266 268 271 273 273 273 271 276 280 284 302 271 208
211 217 243 257 239 263 264 249 279 240 178 248 207 200 229 205 191 183 176 179 191 191 188 194 197 197 198 199 203 206 209 209 206 206 206 208 209 211 212 211 212 212 212 213 213 213 213 214 215 215 213 213 213 213 213 213 212 211 212 213 212 212 212 213 212 211 212 213 213 215 214 212 212 214 219 227 232 238 241 247 254 258 264 267 268 269 271 274 273 271 271 275 275 276 276 230 194
206 215 218 257 239 272 288 265 281 266 186 258 203 198 234 208 180 186 186 190 197 196 195 197 196 196 199 202 204 206 207 207 207 207 207 208 210 211 213 214 214 214 213 214 214 215 216 217 218 218 217 216 215 215 215 216 215 214 215 216 216 215 215 216 216 215 215 216 216 216 214 211 211 212 219 227 233 238 242 249 256 262 266 267 269 272 275 278 276 274 275 276 272 269 256 225 201
197 190 193 244 220 191 281 280 296 266 212 237 184 209 265 158 166 197 203 204 206 204 205 205 201 200 202 204 205 204 204 205 206 208 207 207 209 211 214 215 215 215 215 216 215 215 217 218 219 218 218 219 218 218 218 218 218 218 218 219 220 220 220 220 219 219 217 218 218 217 215 212 211 213 217 227 235 239 242 249 256 261 264 266 269 273 277 279 277 276 278 280 277 270 247 228 215
215 197 204 231 205 196 244 283 304 300 301 342 107 352 313 184 183 207 206 207 215 212 209 213 212 210 210 210 210 208 206 207 206 207 207 207 208 211 213 214 215 215 216 215 215 215 216 217 219 220 220 221 221 221 220 220 219 220 220 220 222 223 224 223 221 220 218 218 218 217 215 213 212 214 217 225 234 239 243 248 256 260 262 265 269 273 278 277 274 275 278 281 277 263 234 227 226
239 217 210 215 198 192 226 284 303 327 313 286 126 284 295 241 205 207 192 197 213 210 206 213 213 213 214 215 215 213 212 211 210 209 208 208 208 210 212 213 214 215 215 214 214 214 215 216 217 219 221 222 223 223 223 222 221 220 220 219 220 221 223 223 222 221 219 219 219 217 216 215 215 216 218 223 230 237 243 248 254 259 262 265 267 272 275 273 272 274 276 275 267 245 221 224 229
246 219 197 199 186 185 191 185 218 228 259 273 181 188 263 294 236 215 192 194 207 207 210 214 211 211 213 214 216 214 213 213 213 213 211 209 209 209 210 211 213 214 214 214 215 216 216 217 218 219 220 222 223 224 224 224 223 223 222 221 222 222 223 225 224 223 222 222 222 221 219 217 218 219 220 223 227 234 241 246 251 256 260 262 264 269 272 273 273 273 272 270 258 238 221 222 226
232 178 157 168 173 195 196 172 201 224 243 283 275 172 235 285 249 219 194 198 209 210 215 216 211 212 213 215 216 215 214 213 213 214 213 212 211 209 210 210 211 211 212 214 216 217 218 219 220 220 221 222 223 224 224 224 224 225 224 224 224 225 226 228 227 226 224 224 224 225 223 222 222 222 224 226 228 233 239 243 248 253 257 259 260 265 270 272 270 270 271 266 256 243 229 225 228
214 146 138 155 164 185 181 171 211 221 215 272 255 169 209 269 262 219 185 199 215 214 217 216 211 213 214 216 217 216 216 215 215 215 215 215 213 213 213 212 211 210 211 213 215 217 218 220 221 222 222 223 224 225 225 225 226 226 227 226 226 227 228 230 231 230 228 226 225 226 226 226 225 225 228 230 231 234 239 243 247 251 255 257 259 263 268 269 267 269 271 266 259 253 238 229 231
193 149 156 128 140 146 154 175 193 156 189 241 234 185 211 264 271 194 175 202 217 218 219 217 214 215 215 217 217 218 218 217 217 218 217 217 217 216 216 215 215 213 213 214 215 217 219 220 222 223 223 224 225 226 226 226 226 226 227 228 227 228 229 230 232 233 233 231 229 228 227 227 228 228 229 232 234 236 239 243 246 248 252 255 257 259 262 265 266 269 272 266 258 254 245 235 232
137 138 218 281 328 56 90 155 118 143 238 236 219 191 200 252 252 187 182 202 207 212 222 222 220 218 218 219 218 217 218 218 218 219 220 220 220 220 219 218 218 217 216 217 218 219 220 221 222 223 224 223 224 225 226 226 225 225 226 227 228 229 229 230 232 233 234 235 234 232 230 229 229 230 231 234 236 237 239 242 244 246 248 251 252 254 257 261 265 269 270 263 255 252 248 241 237
134 127 158 213 306 353 6 8 87 214 242 238 212 183 190 235 241 199 209 207 198 202 212 214 216 218 219 219 217 216 217 217 218 218 220 220 221 221 219 220 220 219 218 218 219 220 221 222 223 224 224 224 224 224 225 225 225 225 226 227 229 229 229 230 231 232 233 234 234 233 233 231 231 231 232 234 236 237 238 240 243 244 244 246 247 250 254 257 261 264 263 258 253 251 247 242 242
163 145 139 158 257 268 224 214 181 230 246 238 197 166 196 240 231 199 213 213 202 204 210 210 211 216 219 219 217 216 215 216 217 217 219 219 220 220 219 220 221 220 220 220 220 221 222 223 224 225 225 225 225 225 225 225 225 226 226 227 228 229 230 231 232 233 233 234 235 234 233 233 233 233 233 234 235 236 238 239 240 242 242 245 246 248 251 254 257 260 259 254 251 251 248 245 247
175 170 158 167 182 200 218 227 238 246 253 242 187 158 223 271 240 198 203 208 207 208 212 214 215 217 219 219 217 214 213 214 216 217 218 218 219 220 219 220 220 220 221 222 222 222 222 224 224 226 227 227 226 227 227 227 226 226 227 227 228 229 229 231 233 234 234 235 237 237 236 236 236 238 238 239 238 238 239 239 240 242 243 245 246 246 249 252 254 256 256 253 250 251 250 249 249
180 162 139 168 183 180 196 202 218 241 257 257 184 158 213 246 235 206 195 201 206 208 214 218 221 222 223 222 217 212 212 213 215 217 217 219 220 220 220 220 221 221 221 222 223 223 223 224 225 226 227 227 227 228 228 228 228 227 227 227 228 229 230 232 233 234 234 236 238 239 239 238 239 242 243 245 244 243 242 240 240 241 242 244 244 243 245 247 251 253 253 250 247 247 249 250 251
187 133 132 199 188 159 195 202 181 186 290 272 210 207 225 226 262 245 202 203 204 207 215 217 223 228 228 224 215 211 213 213 214 216 218 220 221 221 220 220 221 221 221 222 223 224 224 225 226 227 228 228 228 229 229 230 230 229 228 228 228 229 231 232 233 233 234 235 238 240 240 240 241 243 245 246 246 245 244 242 241 242 243 243 243 242 242 244 249 253 253 248 245 245 248 251 253
163 157 185 201 157 142 216 246 181 129 266 266 208 236 277 271 280 272 203 204 206 208 216 216 224 231 228 221 213 212 213 212 213 215 218 220 221 221 221 221 221 221 221 222 223 224 225 226 227 228 229 229 229 230 231 232 232 231 230 230 229 229 230 232 234 234 234 234 237 239 240 241 241 242 244 245 246 245 245 244 243 243 244 244 242 240 240 242 247 252 254 250 246 246 249 252 254
134 191 192 125 96 148 173 232 276 233 246 275 221 217 253 240 261 266 185 200 215 212 214 217 226 231 227 220 217 215 214 213 213 215 218 219 220 221 221 221 223 223 223 224 225 226 226 227 228 229 229 229 229 230 230 231 232 232 232 231 231 231 232 233 235 236 236 235 236 237 238 240 240 240 241 243 244 244 244 244 244 244 245 245 242 240 240 242 246 252 255 253 248 245 247 250 253
167 184 174 137 156 197 163 186 226 219 236 283 285 242 230 211 233 231 192 205 217 215 214 216 224 227 223 223 222 219 216 213 213 215 218 219 220 221 221 222 223 223 224 226 226 225 225 227 228 229 230 231 230 230 230 231 232 233 234 234 234 233 233 234 235 236 237 237 237 237 237 238 238 238 239 240 242 243 243 244 244 245 246 245 243 241 241 242 246 251 255 256 252 246 244 247 250
191 128 166 168 166 180 173 180 188 192 223 262 287 274 245 223 210 190 199 211 210 212 213 211 218 218 218 222 223 220 216 212 212 214 216 218 220 221 222 222 223 223 224 226 225 223 225 227 228 229 231 231 230 230 231 232 233 233 235 235 235 235 235 235 235 236 237 238 237 237 237 237 237 237 237 238 240 241 242 244 245 246 246 246 246 244 242 243 246 249 253 256 256 251 246 245 247
188 168 185 186 151 149 168 204 188 173 199 213 247 266 261 246 204 183 200 213 209 210 211 212 217 215 216 221 223 220 215 214 214 214 215 218 220 221 222 223 223 223 224 224 223 223 225 227 228 229 229 229 229 231 231 232 233 233 234 235 235 236 236 236 236 237 238 238 239 238 238 237 237 237 237 237 239 240 241 243 245 246 248 248 247 246 245 245 246 248 251 254 256 255 251 247 245
186 193 193 183 168 126 146 236 247 182 197 191 192 252 262 248 199 187 200 214 216 213 209 214 223 218 219 224 225 221 217 216 216 214 215 217 219 221 221 222 222 221 222 222 221 223 224 225 227 228 228 228 230 231 232 233 233 233 234 235 236 237 237 237 237 237 238 238 239 240 240 239 238 238 237 237 238 240 241 242 243 245 247 248 248 247 246 246 247 249 251 253 255 256 255 251 247